(°C)
(°C)
-0°
-0°
ZSZ
ZSZ
ZSZ
ZSZ
Z
ZSZ
ZSZ
(km/h)
12-18
12-19
13-21
13-21
14-22
13-22
13-22
(mm)
0
0
0
0
0
0
0
(%)
0
0
0
0
0
0
0

Výška Slnka nad obzorom

/ -31.7°
sun-icon
UV 2
06:20
18:57
Dorastajúci polmesiac (149°)
18:41
02:17

Správy METAR pre lokalitu Ulyanovsk Vostochny Airport (UWLW)

Čas Podmienky Teplota/
Rosný bod
Vietor Viditeľnosť Počasie Oblaky Tlak Zmeniť Nespracované
VFR 8°C / 3°C 310º 10kt >10km - Clouds and Visibility OK 1015 No Significant change UWLW 172100Z 31005MPS CAVOK 08/03 Q1015 R02/CLRD60 NOSIG RMK QFE755
VFR 8°C / 1°C 310º 10kt >10km - Clouds and Visibility OK 1015 No Significant change UWLW 172000Z 31005MPS CAVOK 08/01 Q1015 R02/CLRD60 NOSIG RMK QFE755
VFR 8°C / 1°C 310º 10kt >10km - Clouds and Visibility OK 1015 No Significant change UWLW 171900Z 31005MPS CAVOK 08/01 Q1015 R02/CLRD60 NOSIG RMK QFE755
VFR 8°C / 1°C 310º 8kt >10km - Clouds and Visibility OK 1015 No Significant change UWLW 171800Z 31004MPS CAVOK 08/01 Q1015 R02/CLRD60 NOSIG RMK QFE755
VFR 8°C / 2°C 310º 8kt >10km - Clouds and Visibility OK 1015 No Significant change UWLW 171700Z 31004MPS CAVOK 08/02 Q1015 R02/CLRD60 NOSIG RMK QFE755
VFR 8°C / 2°C 300º 10kt >10km - Clouds and Visibility OK 1015 No Significant change UWLW 171600Z 30005MPS CAVOK 08/02 Q1015 R02/CLRD60 NOSIG RMK QFE756
VFR 8°C / 2°C 310º variable 280º to 340º 6kt >10km - Clouds and Visibility OK 1015 No Significant change UWLW 171500Z 31003MPS 280V340 CAVOK 08/02 Q1015 R20/CLRD60 NOSIG RMK QFE756
MVFR 8°C / 4°C 310º variable 290º to 350º 10kt 8000m - Clear 1015 No Significant change UWLW 171400Z 31005MPS 290V350 8000 NSC 08/04 Q1015 R20/CLRD60 NOSIG RMK QFE756
MVFR 9°C / 2°C 310º variable 280º to 350º 8kt 8000m - Clear 1015 No Significant change. Runway 20: Damp, 11-25% contamination with <1mm, friction coefficient 0.55. UWLW 171300Z 31004MPS 280V350 8000 NSC 09/02 Q1015 R20/120055 NOSIG RMK QFE756
MVFR 9°C / 2°C 310º variable 280º to 340º 8kt 8000m - Clear 1015 No Significant change. Runway 20: Damp, 11-25% contamination with <1mm, friction coefficient 0.55. UWLW 171200Z 31004MPS 280V340 8000 NSC 09/02 Q1015 R20/120055 NOSIG RMK QFE756
MVFR 9°C / 3°C 310º 8kt 8000m - Broken Clouds 4400ft 1015 No Significant change. Runway 20: Wet or puddles, 51-100% contamination with 1mm, friction coefficient 0.50. UWLW 171100Z 31004MPS 8000 BKN044CB 09/03 Q1015 R20/290150 NOSIG RMK QFE756
MVFR 8°C / 4°C 280º 8kt 8000m Light Showers Rain 3.00mm precipitation Vertical Visibility of 0ft. 1015 No Significant change. Runway 20: Wet or puddles, 51-100% contamination with 1mm, friction coefficient 0.50. UWLW 171000Z 28004MPS 8000 -SHRA OVC040CB 08/04 Q1015 R20/290150 NOSIG RMK QFE756
MVFR 9°C / 3°C 280º 10kt 8000m - Overcast 4000ft 1015 No Significant change. Runway 20: Wet or puddles, 51-100% contamination with 1mm, friction coefficient 0.50. UWLW 170900Z 28005MPS 8000 OVC040CB 09/03 Q1015 R20/290150 NOSIG RMK QFE756
MVFR 8°C / 3°C 290º 4kt 8000m Light Showers Rain 3.00mm precipitation Vertical Visibility of 0ft. 1015 No Significant change. Runway 20: Wet or puddles, 51-100% contamination with 1mm, friction coefficient 0.50. UWLW 170800Z 29002MPS 8000 -SHRA BKN027CB OVC040 08/03 Q1015 R20/290150 NOSIG RMK QFE756
MVFR 8°C / 3°C 300º 6kt 8000m Light Showers Rain 3.00mm precipitation Vertical Visibility of 0ft. 1015 No Significant change. Runway 20: Wet or puddles, 51-100% contamination with 1mm, friction coefficient 0.50. UWLW 170700Z 30003MPS 8000 -SHRA BKN027CB OVC040 08/03 Q1015 R20/290150 NOSIG RMK QFE756
MVFR 7°C / 4°C 300º 10kt 8000m - Broken Clouds 2000ft 1015 No Significant change. Runway 20: Wet or puddles, 51-100% contamination with 1mm, friction coefficient 0.50. UWLW 170500Z 30005MPS 8000 BKN020CB OVC046 07/04 Q1015 R20/290150 NOSIG RMK QFE756
MVFR 6°C / 5°C 310º 10kt >10km Light Showers Rain 3.00mm precipitation Vertical Visibility of 0ft. 1015 No Significant change. Runway 20: Wet or puddles, 51-100% contamination with 1mm, friction coefficient 0.50. UWLW 170400Z 31005MPS 9999 -SHRA OVC020CB 06/05 Q1015 R20/290150 NOSIG RMK QFE755
MVFR 6°C / 5°C 310º 8kt >10km Light Rain 1.00mm precipitation Vertical Visibility of 0ft. 1014 No Significant change. Runway 20: Wet or puddles, 51-100% contamination with 1mm, friction coefficient 0.50. UWLW 170300Z 31004MPS 9999 -RA OVC020 06/05 Q1014 R20/290150 NOSIG RMK QFE755
MVFR 6°C / 5°C 310º 8kt >10km - Broken Clouds 2000ft 1014 No Significant change UWLW 170200Z 31004MPS 9999 BKN020 06/05 Q1014 R20/CLRD60 NOSIG RMK QFE755
MVFR 7°C / 4°C 310º variable 280º to 340º 8kt >10km - Broken Clouds 2700ft 1014 No Significant change UWLW 170100Z 31004MPS 280V340 9999 BKN027 07/04 Q1014 R20/CLRD60 NOSIG RMK QFE755
MVFR 7°C / 5°C 310º 8kt >10km - Broken Clouds 2700ft 1014 No Significant change UWLW 170000Z 31004MPS 9999 BKN027 07/05 Q1014 R20/CLRD60 NOSIG RMK QFE755
MVFR 7°C / 4°C 310º variable 290º to 350º 10kt >10km - Broken Clouds 2700ft 1014 No Significant change UWLW 162300Z 31005MPS 290V350 9999 BKN027 07/04 Q1014 R20/CLRD60 NOSIG RMK QFE755
MVFR 8°C / 4°C 310º variable 290º to 350º 10kt >10km - Broken Clouds 2700ft 1014 No Significant change UWLW 162200Z 31005MPS 290V350 9999 BKN027 08/04 Q1014 R20/CLRD60 NOSIG RMK QFE755
VFR 8°C / 4°C 320º 10kt >10km - Broken Clouds 3300ft 1014 No Significant change UWLW 162100Z 32005MPS 9999 BKN033 08/04 Q1014 R20/CLRD60 NOSIG RMK QFE755

VFR

8°C / 3°C

[Viac]
Vietor 310º 10kt
Viditeľnosť >10km
Počasie -
Oblaky Clouds and Visibility OK
Tlak 1015
Zmeniť No Significant change
Nespracované UWLW 172100Z 31005MPS CAVOK 08/03 Q1015 R02/CLRD60 NOSIG RMK QFE755

VFR

8°C / 1°C

[Viac]
Vietor 310º 10kt
Viditeľnosť >10km
Počasie -
Oblaky Clouds and Visibility OK
Tlak 1015
Zmeniť No Significant change
Nespracované UWLW 172000Z 31005MPS CAVOK 08/01 Q1015 R02/CLRD60 NOSIG RMK QFE755

VFR

8°C / 1°C

[Viac]
Vietor 310º 10kt
Viditeľnosť >10km
Počasie -
Oblaky Clouds and Visibility OK
Tlak 1015
Zmeniť No Significant change
Nespracované UWLW 171900Z 31005MPS CAVOK 08/01 Q1015 R02/CLRD60 NOSIG RMK QFE755

VFR

8°C / 1°C

[Viac]
Vietor 310º 8kt
Viditeľnosť >10km
Počasie -
Oblaky Clouds and Visibility OK
Tlak 1015
Zmeniť No Significant change
Nespracované UWLW 171800Z 31004MPS CAVOK 08/01 Q1015 R02/CLRD60 NOSIG RMK QFE755

VFR

8°C / 2°C

[Viac]
Vietor 310º 8kt
Viditeľnosť >10km
Počasie -
Oblaky Clouds and Visibility OK
Tlak 1015
Zmeniť No Significant change
Nespracované UWLW 171700Z 31004MPS CAVOK 08/02 Q1015 R02/CLRD60 NOSIG RMK QFE755

VFR

8°C / 2°C

[Viac]
Vietor 300º 10kt
Viditeľnosť >10km
Počasie -
Oblaky Clouds and Visibility OK
Tlak 1015
Zmeniť No Significant change
Nespracované UWLW 171600Z 30005MPS CAVOK 08/02 Q1015 R02/CLRD60 NOSIG RMK QFE756

VFR

8°C / 2°C

[Viac]
Vietor 310º variable 280º to 340º 6kt
Viditeľnosť >10km
Počasie -
Oblaky Clouds and Visibility OK
Tlak 1015
Zmeniť No Significant change
Nespracované UWLW 171500Z 31003MPS 280V340 CAVOK 08/02 Q1015 R20/CLRD60 NOSIG RMK QFE756

MVFR

8°C / 4°C

[Viac]
Vietor 310º variable 290º to 350º 10kt
Viditeľnosť 8000m
Počasie -
Oblaky Clear
Tlak 1015
Zmeniť No Significant change
Nespracované UWLW 171400Z 31005MPS 290V350 8000 NSC 08/04 Q1015 R20/CLRD60 NOSIG RMK QFE756

MVFR

9°C / 2°C

[Viac]
Vietor 310º variable 280º to 350º 8kt
Viditeľnosť 8000m
Počasie -
Oblaky Clear
Tlak 1015
Zmeniť No Significant change. Runway 20: Damp, 11-25% contamination with <1mm, friction coefficient 0.55.
Nespracované UWLW 171300Z 31004MPS 280V350 8000 NSC 09/02 Q1015 R20/120055 NOSIG RMK QFE756

MVFR

9°C / 2°C

[Viac]
Vietor 310º variable 280º to 340º 8kt
Viditeľnosť 8000m
Počasie -
Oblaky Clear
Tlak 1015
Zmeniť No Significant change. Runway 20: Damp, 11-25% contamination with <1mm, friction coefficient 0.55.
Nespracované UWLW 171200Z 31004MPS 280V340 8000 NSC 09/02 Q1015 R20/120055 NOSIG RMK QFE756

MVFR

9°C / 3°C

[Viac]
Vietor 310º 8kt
Viditeľnosť 8000m
Počasie -
Oblaky Broken Clouds 4400ft
Tlak 1015
Zmeniť No Significant change. Runway 20: Wet or puddles, 51-100% contamination with 1mm, friction coefficient 0.50.
Nespracované UWLW 171100Z 31004MPS 8000 BKN044CB 09/03 Q1015 R20/290150 NOSIG RMK QFE756

MVFR

8°C / 4°C

[Viac]
Vietor 280º 8kt
Viditeľnosť 8000m
Počasie Light Showers Rain 3.00mm precipitation
Oblaky Vertical Visibility of 0ft.
Tlak 1015
Zmeniť No Significant change. Runway 20: Wet or puddles, 51-100% contamination with 1mm, friction coefficient 0.50.
Nespracované UWLW 171000Z 28004MPS 8000 -SHRA OVC040CB 08/04 Q1015 R20/290150 NOSIG RMK QFE756

MVFR

9°C / 3°C

[Viac]
Vietor 280º 10kt
Viditeľnosť 8000m
Počasie -
Oblaky Overcast 4000ft
Tlak 1015
Zmeniť No Significant change. Runway 20: Wet or puddles, 51-100% contamination with 1mm, friction coefficient 0.50.
Nespracované UWLW 170900Z 28005MPS 8000 OVC040CB 09/03 Q1015 R20/290150 NOSIG RMK QFE756

MVFR

8°C / 3°C

[Viac]
Vietor 290º 4kt
Viditeľnosť 8000m
Počasie Light Showers Rain 3.00mm precipitation
Oblaky Vertical Visibility of 0ft.
Tlak 1015
Zmeniť No Significant change. Runway 20: Wet or puddles, 51-100% contamination with 1mm, friction coefficient 0.50.
Nespracované UWLW 170800Z 29002MPS 8000 -SHRA BKN027CB OVC040 08/03 Q1015 R20/290150 NOSIG RMK QFE756

MVFR

8°C / 3°C

[Viac]
Vietor 300º 6kt
Viditeľnosť 8000m
Počasie Light Showers Rain 3.00mm precipitation
Oblaky Vertical Visibility of 0ft.
Tlak 1015
Zmeniť No Significant change. Runway 20: Wet or puddles, 51-100% contamination with 1mm, friction coefficient 0.50.
Nespracované UWLW 170700Z 30003MPS 8000 -SHRA BKN027CB OVC040 08/03 Q1015 R20/290150 NOSIG RMK QFE756

MVFR

7°C / 4°C

[Viac]
Vietor 300º 10kt
Viditeľnosť 8000m
Počasie -
Oblaky Broken Clouds 2000ft
Tlak 1015
Zmeniť No Significant change. Runway 20: Wet or puddles, 51-100% contamination with 1mm, friction coefficient 0.50.
Nespracované UWLW 170500Z 30005MPS 8000 BKN020CB OVC046 07/04 Q1015 R20/290150 NOSIG RMK QFE756

MVFR

6°C / 5°C

[Viac]
Vietor 310º 10kt
Viditeľnosť >10km
Počasie Light Showers Rain 3.00mm precipitation
Oblaky Vertical Visibility of 0ft.
Tlak 1015
Zmeniť No Significant change. Runway 20: Wet or puddles, 51-100% contamination with 1mm, friction coefficient 0.50.
Nespracované UWLW 170400Z 31005MPS 9999 -SHRA OVC020CB 06/05 Q1015 R20/290150 NOSIG RMK QFE755

MVFR

6°C / 5°C

[Viac]
Vietor 310º 8kt
Viditeľnosť >10km
Počasie Light Rain 1.00mm precipitation
Oblaky Vertical Visibility of 0ft.
Tlak 1014
Zmeniť No Significant change. Runway 20: Wet or puddles, 51-100% contamination with 1mm, friction coefficient 0.50.
Nespracované UWLW 170300Z 31004MPS 9999 -RA OVC020 06/05 Q1014 R20/290150 NOSIG RMK QFE755

MVFR

6°C / 5°C

[Viac]
Vietor 310º 8kt
Viditeľnosť >10km
Počasie -
Oblaky Broken Clouds 2000ft
Tlak 1014
Zmeniť No Significant change
Nespracované UWLW 170200Z 31004MPS 9999 BKN020 06/05 Q1014 R20/CLRD60 NOSIG RMK QFE755

MVFR

7°C / 4°C

[Viac]
Vietor 310º variable 280º to 340º 8kt
Viditeľnosť >10km
Počasie -
Oblaky Broken Clouds 2700ft
Tlak 1014
Zmeniť No Significant change
Nespracované UWLW 170100Z 31004MPS 280V340 9999 BKN027 07/04 Q1014 R20/CLRD60 NOSIG RMK QFE755

MVFR

7°C / 5°C

[Viac]
Vietor 310º 8kt
Viditeľnosť >10km
Počasie -
Oblaky Broken Clouds 2700ft
Tlak 1014
Zmeniť No Significant change
Nespracované UWLW 170000Z 31004MPS 9999 BKN027 07/05 Q1014 R20/CLRD60 NOSIG RMK QFE755

MVFR

7°C / 4°C

[Viac]
Vietor 310º variable 290º to 350º 10kt
Viditeľnosť >10km
Počasie -
Oblaky Broken Clouds 2700ft
Tlak 1014
Zmeniť No Significant change
Nespracované UWLW 162300Z 31005MPS 290V350 9999 BKN027 07/04 Q1014 R20/CLRD60 NOSIG RMK QFE755

MVFR

8°C / 4°C

[Viac]
Vietor 310º variable 290º to 350º 10kt
Viditeľnosť >10km
Počasie -
Oblaky Broken Clouds 2700ft
Tlak 1014
Zmeniť No Significant change
Nespracované UWLW 162200Z 31005MPS 290V350 9999 BKN027 08/04 Q1014 R20/CLRD60 NOSIG RMK QFE755

VFR

8°C / 4°C

[Viac]
Vietor 320º 10kt
Viditeľnosť >10km
Počasie -
Oblaky Broken Clouds 3300ft
Tlak 1014
Zmeniť No Significant change
Nespracované UWLW 162100Z 32005MPS 9999 BKN033 08/04 Q1014 R20/CLRD60 NOSIG RMK QFE755

Správy TAF pre lokalitu Ulyanovsk Vostochny Airport (UWLW)

From till


Maximum Temperature 11ºC on . Minimum Temperature 3ºC on .
From till Wind 300º 6kt. Visibility 10km or more. Broken Clouds 2000ft.
Temporarly from till Wind 340º 12kt. Gust 23kt. Broken Clouds 1600ft.

Nespracované: TAF UWLW 171955Z 1721/1821 30003MPS 9999 BKN020 TX11/1812Z TN03/1803Z TEMPO 1721/1815 34006G12MPS BKN016CB

Aktuálne satelitné snímky a snímky zrážok pre lokalitu Ulyanovsk Vostochny Airport, Rusko

Značka polohy je umiestnená naUlyanovsk Vostochny Airport. [Viac]

Satelitné snímky zhotovované v reálnom čase využívajú viditeľné svetlo počas dňa a infračervené žiarenie počas noci. Vzhľadom na to, že infračervené žiarenie zisťuje teplotné rozdiely, snímka v noci nie je tmavá. Nízke oblaky a hmlu je, žiaľ, ťažké odlíšiť od prízemných teplôt, preto môžu byť počas noci takmer neviditeľné. Meteosat satelitné snímky pre Európu sú aktualizované v reálnom čase každých 5 minút. Snímky z GOES-16/GOES-17 (Severná a Južná Amerika) a Himawari (Ázia) sú aktualizované každých 10 minút.

Copyright 2021 EUMETSAT / meteoblue. / Copyright 2021 meteoblue

Radar a krátkodobá predpoveď zrážok pre Ulyanovsk Vostochny Airport

Mrholenie
Slabý
Mierne
Ťažké
Veľmi ťažké
Krúpy

Značka polohy je umiestnená na Ulyanovsk Vostochny Airport. Táto animácia ukazuje zrážky pozorované radarom za poslednú hodinu a tiež 1h predpoveď. Mrholenie alebo slabé sneženie môže byť pre radar neviditeľné. Intenzita zrážok je farebne označená od svetlomodrej po oranžovú.